AL7IH Weather Reports


time (UTC)temp
C
wind
direction
speed
KPH
gust
KPH
rain 1hr
cm
rain 24hr
cm
rain mn
cm
humidity
%
barometer
mb
20260510094545 18 129 0.0 0.0 0.00 0.00 0.00 89 1013.2
20260510093017 18 129 0.0 0.0 0.00 0.00 0.00 89 1013.0
20260510091523 18 129 0.0 0.0 0.00 0.00 0.00 88 1012.9
20260510090028 19 129 0.0 0.0 0.00 0.00 0.00 87 1012.8
20260510084528 19 129 0.0 0.0 0.00 0.00 0.00 87 1012.6
20260510083030 20 129 0.0 3.2 0.00 0.00 0.00 86 1012.5
20260510081520 20 141 3.2 4.8 0.00 0.00 0.00 84 1012.6
20260510080029 20 311 0.0 3.2 0.00 0.00 0.00 84 1012.6
20260510074528 21 320 0.0 0.0 0.00 0.00 0.00 83 1012.6
20260510073010 21 320 0.0 0.0 0.00 0.00 0.00 81 1012.8
20260510071521 22 319 0.0 3.2 0.00 0.00 0.00 79 1012.8
20260510070029 22 317 0.0 3.2 0.00 0.00 0.00 78 1012.9
20260510064528 22 299 0.0 3.2 0.00 0.00 0.00 77 1012.9
20260510063026 23 300 0.0 3.2 0.00 0.00 0.00 76 1012.9
20260510061516 23 296 0.0 3.2 0.00 0.00 0.00 76 1012.9
20260510060021 23 274 0.0 4.8 0.00 0.00 0.00 75 1012.9
20260510054525 23 303 1.6 4.8 0.00 0.00 0.00 75 1012.6
20260510053027 22 314 0.0 3.2 0.00 0.00 0.00 77 1012.7
20260510051510 22 285 0.0 3.2 0.00 0.00 0.00 79 1012.7
20260510050018 22 139 0.0 0.0 0.00 0.00 0.00 80 1012.4
20260510044531 22 139 0.0 4.8 0.00 0.00 0.00 79 1012.3
20260510043026 23 317 0.0 3.2 0.00 0.00 0.00 77 1012.2
20260510041529 23 314 0.0 3.2 0.00 0.00 0.00 76 1012.0
20260510040014 23 307 0.0 0.0 0.00 0.00 0.00 74 1012.1
20260510034520 24 307 0.0 0.0 0.00 0.00 0.00 74 1012.1
20260510033023 25 307 0.0 0.0 0.00 0.00 0.00 71 1012.0
20260510031525 25 307 0.0 3.2 0.00 0.00 0.00 69 1011.8
20260510030029 26 308 0.0 3.2 0.00 0.00 0.00 67 1011.6
20260510024519 26 297 0.0 3.2 0.00 0.00 0.00 66 1011.3
20260510023020 26 271 0.0 3.2 0.00 0.00 0.00 66 1011.1
20260510021524 26 289 0.0 3.2 0.00 0.00 0.00 65 1011.0
20260510020027 27 303 0.0 3.2 0.00 0.00 0.00 63 1010.7
20260510014527 27 304 0.0 1.6 0.00 0.00 0.00 61 1010.4
20260510013021 28 286 0.0 3.2 0.00 0.00 0.00 60 1010.2
20260510011537 28 293 0.0 3.2 0.00 0.00 0.00 58 1009.9
20260510010025 29 358 1.6 4.8 0.00 0.00 0.00 56 1009.6
20260510004514 30 356 1.6 9.7 0.00 0.00 0.00 54 1009.4
20260510003024 30 284 3.2 9.7 0.00 0.00 0.00 53 1009.4
20260510001526 31 358 3.2 8.0 0.00 0.00 0.00 51 1009.4
20260510000051 32 302 3.2 11.3 0.00 0.00 0.00 49 1009.4
20260509234510 32 275 1.6 6.4 0.00 0.00 0.00 46 1009.4
20260509233016 32 291 1.6 4.8 0.00 0.00 0.00 45 1009.4
20260509231522 32 318 1.6 6.4 0.00 0.00 0.00 47 1009.3
20260509230026 32 302 1.6 6.4 0.00 0.00 0.00 46 1009.4
20260509224527 33 315 3.2 8.0 0.00 0.00 0.00 47 1009.4
20260509223016 33 298 3.2 6.4 0.00 0.00 0.00 47 1009.4
20260509221518 32 283 1.6 6.4 0.00 0.00 0.00 48 1009.4
20260509220025 32 338 1.6 8.0 0.00 0.00 0.00 49 1009.5
20260509214532 32 278 1.6 4.8 0.00 0.00 0.00 49 1009.5
20260509213028 31 302 0.0 6.4 0.00 0.00 0.00 52 1009.6
20260509211518 32 298 1.6 6.4 0.00 0.00 0.00 52 1009.8
20260509210031 32 273 3.2 4.8 0.00 0.00 0.00 50 1010.0
20260509204534 31 358 3.2 9.7 0.00 0.00 0.00 54 1010.4
20260509203027 30 326 0.0 4.8 0.00 0.00 0.00 57 1010.5
20260509201514 31 315 1.6 6.4 0.00 0.00 0.00 52 1010.8
20260509200022 31 359 1.6 9.7 0.00 0.00 0.00 55 1011.0
20260509194528 31 250 0.0 8.0 0.00 0.00 0.00 52 1011.3
20260509193029 30 316 3.2 8.0 0.00 0.00 0.00 56 1011.5
20260509191528 31 323 1.6 6.4 0.00 0.00 0.00 53 1011.5
20260509190019 31 16 4.8 9.7 0.00 0.00 0.00 55 1011.7
20260509184538 30 27 3.2 11.3 0.00 0.00 0.00 55 1011.9
20260509183024 30 293 0.0 8.0 0.00 0.00 0.00 62 1012.2
20260509181526 30 23 1.6 9.7 0.00 0.00 0.00 58 1012.5
20260509180029 30 282 3.2 9.7 0.00 0.00 0.00 59 1012.5
20260509174518 29 359 4.8 11.3 0.00 0.00 0.00 63 1012.7
20260509173023 28 356 1.6 6.4 0.00 0.00 0.00 66 1013.0
20260509171533 28 313 3.2 8.0 0.00 0.00 0.00 67 1012.9
20260509170030 28 335 1.6 6.4 0.00 0.00 0.00 68 1012.9
20260509164528 27 281 1.6 8.0 0.00 0.00 0.00 70 1013.0
20260509163025 27 4 3.2 11.3 0.00 0.00 0.00 71 1013.0
20260509161529 27 303 1.6 11.3 0.00 0.00 0.00 75 1012.9
20260509160034 26 358 1.6 11.3 0.00 0.00 0.00 77 1013.0
20260509154529 26 288 3.2 14.5 0.00 0.00 0.00 78 1012.9
20260509153031 26 323 1.6 9.7 0.00 0.00 0.00 78 1013.1
20260509151524 25 359 1.6 4.8 0.00 0.00 0.00 80 1013.4
20260509150036 25 294 1.6 4.8 0.00 0.00 0.00 83 1013.4
20260509144530 24 4 0.0 3.2 0.00 0.00 0.00 84 1013.5
20260509143028 23 248 0.0 1.6 0.00 0.00 0.00 87 1013.3
20260509141529 22 245 0.0 0.0 0.00 0.00 0.00 89 1013.1
20260509140027 22 214 0.0 0.0 0.00 0.00 0.00 90 1012.9
20260509134545 22 214 0.0 0.0 0.00 0.00 0.00 91 1012.7
20260509133020 22 213 1.6 6.4 0.00 0.00 0.00 91 1012.9
20260509131521 22 108 0.0 3.2 0.00 0.00 0.00 92 1012.9
20260509130031 22 200 0.0 0.0 0.00 0.00 0.00 92 1013.2
20260509124510 21 203 0.0 0.0 0.00 0.00 0.00 93 1012.9
20260509123014 21 203 0.0 3.2 0.00 0.00 0.00 93 1012.9
20260509121537 21 255 0.0 0.0 0.00 0.00 0.00 94 1012.8
20260509120022 21 255 0.0 6.4 0.00 0.00 0.00 94 1013.2
20260509114535 21 184 0.0 4.8 0.00 0.00 0.00 94 1013.0
20260509113020 21 278 0.0 0.0 0.00 0.00 0.00 94 1012.2
20260509111518 21 335 0.0 0.0 0.00 0.00 0.00 93 1011.8
20260509110022 21 335 0.0 3.2 0.00 0.00 0.00 93 1012.3
20260509104539 21 300 0.0 3.2 0.00 0.00 0.00 94 1012.5
20260509103012 21 116 0.0 0.0 0.00 0.00 0.00 94 1012.2
20260509101519 21 116 0.0 0.0 0.00 0.00 0.00 93 1012.1
20260509100020 21 115 0.0 0.0 0.00 0.00 0.00 93 1011.9